Time,TemperatureF,DewpointF,PressureIn,WindDirection,WindDirectionDegrees,WindSpeedMPH,WindSpeedGustMPH,Humidity,HourlyPrecipIn,Conditions,Clouds,dailyrainin,SoftwareType,DateUTC
2013-05-25 00:01:00,50.5,50.5,29.50,North,2,0.0,0.0,100,0.00,,,0.00,VWS V14.01,2013-05-25 04:01:00,
2013-05-25 00:06:00,50.5,50.5,29.50,NNW,344,0.0,0.0,100,0.00,,-RA,0.00,VWS V14.01,2013-05-25 04:06:00,
2013-05-25 00:11:00,50.5,50.5,29.50,NNW,330,0.0,2.2,100,0.00,,-RA,0.00,VWS V14.01,2013-05-25 04:11:00,
2013-05-25 00:16:00,50.4,50.4,29.50,NNE,14,3.6,3.6,100,0.00,,-RA,0.00,VWS V14.01,2013-05-25 04:16:00,
2013-05-25 00:21:00,50.4,50.4,29.50,NNE,18,3.1,4.0,100,0.00,,-RA,0.00,VWS V14.01,2013-05-25 04:21:00,
2013-05-25 00:26:00,50.4,50.4,29.50,North,8,2.7,2.7,100,0.00,,-RA,0.00,VWS V14.01,2013-05-25 04:26:00,
2013-05-25 00:31:00,50.4,50.4,29.50,NNE,29,3.1,3.1,100,0.00,,-RA,0.00,VWS V14.01,2013-05-25 04:31:00,
2013-05-25 00:36:00,50.4,50.4,29.50,North,11,0.0,0.0,100,0.00,,-RA,0.00,VWS V14.01,2013-05-25 04:36:00,
2013-05-25 00:41:00,50.4,50.4,29.50,NNW,332,0.0,0.0,100,0.00,,-RA,0.00,VWS V14.01,2013-05-25 04:41:00,
2013-05-25 00:46:00,50.4,50.4,29.50,East,95,0.0,3.6,100,0.00,,-RA,0.00,VWS V14.01,2013-05-25 04:46:00,
2013-05-25 00:51:00,50.4,50.4,29.50,NNE,28,0.0,0.0,100,0.00,,-RA,0.00,VWS V14.01,2013-05-25 04:51:00,
2013-05-25 00:56:00,50.5,50.5,29.50,North,359,2.2,4.0,100,0.00,,-RA,0.00,VWS V14.01,2013-05-25 04:56:00,
2013-05-25 01:01:00,50.4,50.4,29.50,NNE,29,0.0,0.0,100,0.00,,-RA,0.00,VWS V14.01,2013-05-25 05:01:00,
2013-05-25 01:06:00,50.4,50.4,29.50,NNE,20,3.1,3.1,100,0.00,,-RA,0.00,VWS V14.01,2013-05-25 05:06:00,
2013-05-25 01:11:00,50.4,50.4,29.50,West,262,0.0,2.2,100,0.00,,-RA,0.00,VWS V14.01,2013-05-25 05:11:00,
2013-05-25 01:16:00,50.4,50.4,29.50,NNE,19,0.0,0.0,100,0.00,, +RA,0.00,VWS V14.01,2013-05-25 05:16:00,
2013-05-25 01:21:00,50.4,50.4,29.50,NE,37,3.1,3.1,100,0.00,, +RA,0.00,VWS V14.01,2013-05-25 05:21:00,
2013-05-25 01:26:00,50.4,50.4,29.50,WNW,289,0.0,0.0,100,0.00,, +RA,0.00,VWS V14.01,2013-05-25 05:26:00,
2013-05-25 01:31:00,50.5,50.5,29.50,North,11,0.0,0.0,100,0.00,, +RA,0.00,VWS V14.01,2013-05-25 05:31:00,
2013-05-25 01:36:00,50.4,50.4,29.47,NNE,15,0.0,2.7,100,0.00,, +RA,0.00,VWS V14.01,2013-05-25 05:36:00,
2013-05-25 01:41:00,50.4,50.4,29.47,NNW,334,0.0,0.0,100,0.00,,RA,0.00,VWS V14.01,2013-05-25 05:41:00,
2013-05-25 01:46:00,50.4,50.4,29.47,North,10,0.0,3.1,100,0.00,,RA,0.00,VWS V14.01,2013-05-25 05:46:00,
2013-05-25 01:51:00,50.4,50.4,29.47,NNW,346,2.7,2.7,100,0.00,,RA,0.00,VWS V14.01,2013-05-25 05:51:00,
2013-05-25 01:56:00,50.4,50.4,29.47,NNE,25,2.7,2.7,100,0.00,,RA,0.00,VWS V14.01,2013-05-25 05:56:00,
2013-05-25 02:01:00,50.4,50.4,29.47,NNW,347,2.2,4.5,100,0.00,,-RA,0.00,VWS V14.01,2013-05-25 06:01:00,
2013-05-25 02:06:00,50.5,50.5,29.47,North,9,0.0,0.0,100,0.00,,-RA,0.00,VWS V14.01,2013-05-25 06:06:00,
2013-05-25 02:11:00,50.4,50.4,29.47,North,10,0.0,4.0,100,0.00,,-RA,0.00,VWS V14.01,2013-05-25 06:11:00,
2013-05-25 02:16:00,50.4,50.4,29.47,North,358,0.0,0.0,100,0.00,,-RA,0.00,VWS V14.01,2013-05-25 06:16:00,
2013-05-25 02:21:00,50.5,50.5,29.47,ESE,121,0.0,3.1,100,0.00,,-RA,0.00,VWS V14.01,2013-05-25 06:21:00,
2013-05-25 02:26:00,50.5,50.5,29.47,NNW,341,0.0,4.9,100,0.00,,-RA,0.00,VWS V14.01,2013-05-25 06:26:00,
2013-05-25 02:31:00,50.5,50.5,29.47,North,350,2.7,4.0,100,0.00,,-RA,0.00,VWS V14.01,2013-05-25 06:31:00,
2013-05-25 02:36:00,50.5,50.5,29.47,NE,34,0.0,0.0,100,0.00,,-RA,0.00,VWS V14.01,2013-05-25 06:36:00,
2013-05-25 02:41:00,50.5,50.5,29.47,North,4,0.0,2.7,100,0.00,,-RA,0.00,VWS V14.01,2013-05-25 06:41:00,
2013-05-25 02:46:00,50.4,50.4,29.47,NNE,18,0.0,3.1,100,0.00,,RA,0.00,VWS V14.01,2013-05-25 06:46:00,
2013-05-25 02:51:00,50.4,50.4,29.47,NNE,19,2.2,2.2,100,0.00,,RA,0.00,VWS V14.01,2013-05-25 06:51:00,
2013-05-25 02:56:00,50.2,50.2,29.47,North,11,2.2,2.7,100,0.00,, +RA,0.00,VWS V14.01,2013-05-25 06:56:00,
2013-05-25 03:01:00,50.2,50.2,29.47,North,355,0.0,5.4,100,0.00,, +RA,0.00,VWS V14.01,2013-05-25 07:01:00,
2013-05-25 03:06:00,50.2,50.2,29.47,NE,52,3.6,4.0,100,0.00,,RA,0.00,VWS V14.01,2013-05-25 07:06:00,
2013-05-25 03:11:00,50.2,50.2,29.47,North,4,2.2,2.7,100,0.00,,-RA,0.00,VWS V14.01,2013-05-25 07:11:00,
2013-05-25 03:16:00,50.2,50.2,29.47,North,6,2.7,2.7,100,0.00,,-RA,0.00,VWS V14.01,2013-05-25 07:16:00,
2013-05-25 03:21:00,50.2,50.2,29.44,NNE,20,0.0,2.2,100,0.00,,-RA,0.00,VWS V14.01,2013-05-25 07:21:00,
2013-05-25 03:26:00,50.2,50.2,29.44,North,6,3.6,5.4,100,0.00,,RA,0.00,VWS V14.01,2013-05-25 07:26:00,
2013-05-25 03:31:00,50.2,50.2,29.44,West,275,0.0,4.0,100,0.00,,RA,0.00,VWS V14.01,2013-05-25 07:31:00,
2013-05-25 03:36:00,50.2,50.2,29.44,NNE,23,3.1,4.0,100,0.00,,RA,0.00,VWS V14.01,2013-05-25 07:36:00,
2013-05-25 03:41:00,50.2,50.2,29.44,North,1,3.6,3.6,100,0.00,,RA,0.00,VWS V14.01,2013-05-25 07:41:00,
2013-05-25 03:46:00,50.2,50.2,29.44,North,3,0.0,4.0,100,0.00,,RA,0.00,VWS V14.01,2013-05-25 07:46:00,
2013-05-25 03:51:00,50.4,50.4,29.44,NW,311,3.1,3.6,100,0.00,,RA,0.00,VWS V14.01,2013-05-25 07:51:00,
2013-05-25 03:56:00,50.4,50.4,29.44,North,9,2.2,2.2,100,0.00,,,0.00,VWS V14.01,2013-05-25 07:56:00,
2013-05-25 04:01:00,50.4,50.4,29.44,North,353,3.1,3.6,100,0.00,,,0.00,VWS V14.01,2013-05-25 08:01:00,
2013-05-25 04:06:00,50.4,50.4,29.44,NNE,28,3.6,4.9,100,0.00,,,0.00,VWS V14.01,2013-05-25 08:06:00,
2013-05-25 04:11:00,50.4,50.4,29.44,NNE,14,3.1,6.3,100,0.00,,,0.00,VWS V14.01,2013-05-25 08:11:00,
2013-05-25 04:16:00,50.5,50.5,29.44,NNE,25,5.4,5.4,100,0.00,,,0.00,VWS V14.01,2013-05-25 08:16:00,
2013-05-25 04:21:00,50.7,50.7,29.44,NNE,13,0.0,0.0,100,0.00,,,0.00,VWS V14.01,2013-05-25 08:21:00,
2013-05-25 04:26:00,50.7,50.7,29.44,NNE,31,0.0,0.0,100,0.00,,,0.00,VWS V14.01,2013-05-25 08:26:00,
2013-05-25 04:31:00,50.7,50.7,29.44,NE,34,8.1,8.1,100,0.00,,,0.00,VWS V14.01,2013-05-25 08:31:00,
2013-05-25 04:36:00,50.7,50.7,29.44,NNE,17,3.1,3.1,100,0.00,,,0.00,VWS V14.01,2013-05-25 08:36:00,
2013-05-25 04:41:00,50.7,50.7,29.44,NNE,14,0.0,0.0,100,0.00,,,0.00,VWS V14.01,2013-05-25 08:41:00,
2013-05-25 04:46:00,50.9,50.9,29.44,NNE,18,0.0,0.0,100,0.00,,,0.00,VWS V14.01,2013-05-25 08:46:00,
2013-05-25 04:51:00,50.9,50.9,29.44,NNE,12,0.0,0.0,100,0.00,,,0.00,VWS V14.01,2013-05-25 08:51:00,
2013-05-25 04:56:00,50.9,50.9,29.44,NNE,25,0.0,3.1,100,0.00,,,0.00,VWS V14.01,2013-05-25 08:56:00,
2013-05-25 05:01:00,50.9,50.9,29.44,NNE,12,0.0,0.0,100,0.00,,-RA,0.00,VWS V14.01,2013-05-25 09:01:00,
2013-05-25 05:06:00,50.9,50.9,29.44,NNE,16,0.0,3.1,100,0.00,,-RA,0.00,VWS V14.01,2013-05-25 09:06:00,
2013-05-25 05:11:00,50.9,50.9,29.44,NNE,27,0.0,4.0,100,0.00,,-RA,0.00,VWS V14.01,2013-05-25 09:11:00,
2013-05-25 05:16:00,50.9,50.9,29.44,NNE,29,0.0,2.2,100,0.00,,-RA,0.00,VWS V14.01,2013-05-25 09:16:00,
2013-05-25 05:21:00,50.9,50.9,29.44,NNE,22,0.0,0.0,100,0.00,,-RA,0.00,VWS V14.01,2013-05-25 09:21:00,
2013-05-25 05:26:00,50.9,50.9,29.44,WNW,299,0.0,0.0,100,0.00,,-RA,0.00,VWS V14.01,2013-05-25 09:26:00,
2013-05-25 05:31:00,50.9,50.9,29.44,NNE,12,0.0,0.0,100,0.00,,-RA,0.00,VWS V14.01,2013-05-25 09:31:00,
2013-05-25 05:36:00,50.9,50.9,29.47,North,9,0.0,3.1,100,0.00,,-RA,0.00,VWS V14.01,2013-05-25 09:36:00,
2013-05-25 05:41:00,50.9,50.9,29.47,NNE,20,0.0,4.0,100,0.00,,-RA,0.00,VWS V14.01,2013-05-25 09:41:00,
2013-05-25 05:46:00,50.9,50.9,29.47,North,358,2.2,3.1,100,0.00,,-RA,0.00,VWS V14.01,2013-05-25 09:46:00,
2013-05-25 05:51:00,50.7,50.7,29.47,NNE,23,0.0,3.1,100,0.00,,-RA,0.00,VWS V14.01,2013-05-25 09:51:00,
2013-05-25 05:56:00,50.7,50.7,29.47,NNE,12,2.2,3.6,100,0.00,,-RA,0.00,VWS V14.01,2013-05-25 09:56:00,
2013-05-25 06:01:00,50.9,50.9,29.47,NNE,21,2.2,2.2,100,0.00,,-RA,0.00,VWS V14.01,2013-05-25 10:01:00,
2013-05-25 06:06:00,50.9,50.9,29.44,North,3,0.0,3.6,100,0.00,,-RA,0.00,VWS V14.01,2013-05-25 10:06:00,
2013-05-25 06:11:00,51.1,51.1,29.44,NNE,25,0.0,2.7,100,0.00,,-RA,0.00,VWS V14.01,2013-05-25 10:11:00,
2013-05-25 06:16:00,51.1,51.1,29.44,North,352,0.0,0.0,100,0.00,,-RA,0.00,VWS V14.01,2013-05-25 10:16:00,
2013-05-25 06:21:00,51.1,51.1,29.47,NE,39,5.8,5.8,100,0.00,,-RA,0.00,VWS V14.01,2013-05-25 10:21:00,
2013-05-25 06:26:00,51.1,51.1,29.47,North,355,3.6,3.6,100,0.00,,-RA,0.00,VWS V14.01,2013-05-25 10:26:00,
2013-05-25 06:31:00,51.1,51.1,29.47,NNE,30,0.0,0.0,100,0.00,,-RA,0.00,VWS V14.01,2013-05-25 10:31:00,
2013-05-25 06:36:00,51.3,51.3,29.47,NNE,13,0.0,0.0,100,0.00,,-RA,0.00,VWS V14.01,2013-05-25 10:36:00,
2013-05-25 06:41:00,51.4,51.4,29.47,NNE,29,3.1,3.1,100,0.00,,-RA,0.00,VWS V14.01,2013-05-25 10:41:00,
2013-05-25 06:46:00,51.3,51.3,29.47,North,9,3.6,3.6,100,0.00,,-RA,0.00,VWS V14.01,2013-05-25 10:46:00,
2013-05-25 06:51:00,51.4,51.4,29.47,North,9,3.6,6.3,100,0.00,,-RA,0.00,VWS V14.01,2013-05-25 10:51:00,
2013-05-25 06:56:00,51.6,51.6,29.47,North,7,2.2,2.2,100,0.00,,-RA,0.00,VWS V14.01,2013-05-25 10:56:00,
2013-05-25 07:01:00,51.4,51.4,29.47,NNE,31,3.6,3.6,100,0.00,,,0.00,VWS V14.01,2013-05-25 11:01:00,
2013-05-25 07:06:00,51.6,51.6,29.44,NNE,30,2.7,2.7,100,0.00,,,0.00,VWS V14.01,2013-05-25 11:06:00,
2013-05-25 07:11:00,51.6,51.6,29.44,NNW,332,0.0,2.2,100,0.00,,,0.00,VWS V14.01,2013-05-25 11:11:00,
2013-05-25 07:16:00,51.8,51.8,29.44,NNE,17,3.1,3.1,100,0.00,,,0.00,VWS V14.01,2013-05-25 11:16:00,
2013-05-25 07:21:00,51.8,51.8,29.47,NE,50,5.4,5.8,100,0.00,,OVC028,0.00,VWS V14.01,2013-05-25 11:21:00,
2013-05-25 07:26:00,52.0,52.0,29.47,NE,44,0.0,0.0,100,0.00,,OVC028,0.00,VWS V14.01,2013-05-25 11:26:00,
2013-05-25 07:31:00,52.2,52.2,29.47,North,354,2.7,5.4,100,0.00,,OVC028,0.00,VWS V14.01,2013-05-25 11:31:00,
2013-05-25 07:36:00,52.0,52.0,29.44,North,9,3.1,3.6,100,0.00,,OVC037,0.00,VWS V14.01,2013-05-25 11:36:00,
2013-05-25 07:41:00,52.3,52.3,29.44,North,2,0.0,2.7,100,0.00,,OVC037,0.00,VWS V14.01,2013-05-25 11:41:00,
2013-05-25 07:46:00,52.5,52.5,29.44,NE,38,3.6,3.6,100,0.00,,OVC037,0.00,VWS V14.01,2013-05-25 11:46:00,
2013-05-25 07:51:00,52.7,52.7,29.44,NNE,30,0.0,4.0,100,0.00,,OVC037,0.00,VWS V14.01,2013-05-25 11:51:00,
2013-05-25 07:56:00,52.7,52.7,29.44,NNE,18,0.0,2.2,100,0.00,,OVC037,0.00,VWS V14.01,2013-05-25 11:56:00,
2013-05-25 08:01:00,52.7,52.7,29.44,NNW,347,2.2,3.1,100,0.00,,OVC016,0.00,VWS V14.01,2013-05-25 12:01:00,
2013-05-25 08:06:00,52.7,52.7,29.47,NNE,29,0.0,2.7,100,0.00,,OVC016,0.00,VWS V14.01,2013-05-25 12:06:00,
2013-05-25 08:16:00,52.5,52.5,29.47,North,11,0.0,0.0,100,0.00,,OVC016,0.00,VWS V14.01,2013-05-25 12:16:00,
2013-05-25 08:21:00,52.7,52.7,29.47,North,11,0.0,0.0,100,0.00,,OVC016,0.00,VWS V14.01,2013-05-25 12:21:00,
2013-05-25 08:26:00,52.9,52.9,29.47,North,3,2.2,3.1,100,0.00,,OVC016,0.00,VWS V14.01,2013-05-25 12:26:00,
2013-05-25 08:31:00,52.7,52.7,29.47,West,262,0.0,0.0,100,0.00,,OVC016,0.00,VWS V14.01,2013-05-25 12:31:00,
2013-05-25 08:36:00,52.5,52.5,29.47,North,7,2.2,2.7,100,0.00,,OVC016,0.00,VWS V14.01,2013-05-25 12:36:00,
2013-05-25 08:41:00,52.3,52.3,29.47,North,356,4.0,4.0,100,0.00,,OVC016,0.00,VWS V14.01,2013-05-25 12:41:00,
2013-05-25 08:46:00,52.2,52.2,29.47,NNE,16,0.0,0.0,100,0.00,,OVC016,0.00,VWS V14.01,2013-05-25 12:46:00,
2013-05-25 08:51:00,52.2,52.2,29.47,NNE,13,0.0,0.0,100,0.00,,OVC016,0.00,VWS V14.01,2013-05-25 12:51:00,
2013-05-25 08:56:00,52.3,52.3,29.47,North,11,0.0,0.0,100,0.00,,OVC016,0.00,VWS V14.01,2013-05-25 12:56:00,
2013-05-25 09:01:00,52.9,52.9,29.47,NNE,27,0.0,0.0,100,0.00,,OVC021,0.00,VWS V14.01,2013-05-25 13:01:00,
2013-05-25 09:06:00,53.1,53.1,29.47,NNE,15,0.0,0.0,100,0.00,,OVC021,0.00,VWS V14.01,2013-05-25 13:06:00,
2013-05-25 09:11:00,53.2,53.2,29.47,WNW,294,3.1,3.1,100,0.00,,OVC021,0.00,VWS V14.01,2013-05-25 13:11:00,
2013-05-25 09:16:00,53.2,53.2,29.47,WNW,295,0.0,3.1,100,0.00,,OVC021,0.00,VWS V14.01,2013-05-25 13:16:00,
2013-05-25 09:21:00,53.6,53.6,29.47,North,4,0.0,3.1,100,0.00,,-RA,0.00,VWS V14.01,2013-05-25 13:21:00,
2013-05-25 09:26:00,53.6,53.6,29.47,SW,230,0.0,0.0,100,0.00,,-RA,0.00,VWS V14.01,2013-05-25 13:26:00,
2013-05-25 09:31:00,53.2,53.2,29.47,North,349,3.6,3.6,100,0.00,,-RA,0.00,VWS V14.01,2013-05-25 13:31:00,
2013-05-25 09:36:00,53.2,53.2,29.47,North,7,0.0,3.6,100,0.00,,-RA,0.00,VWS V14.01,2013-05-25 13:36:00,
2013-05-25 09:41:00,53.2,53.2,29.47,North,354,3.1,4.5,100,0.00,,-RA,0.00,VWS V14.01,2013-05-25 13:41:00,
2013-05-25 09:46:00,53.4,53.4,29.47,NNE,25,0.0,3.1,100,0.00,,-RA,0.00,VWS V14.01,2013-05-25 13:46:00,
2013-05-25 09:51:00,52.7,52.7,29.47,North,2,3.6,3.6,100,0.00,,-RA,0.00,VWS V14.01,2013-05-25 13:51:00,
2013-05-25 09:56:00,52.5,52.5,29.47,NNE,26,0.0,0.0,100,0.00,,-RA,0.00,VWS V14.01,2013-05-25 13:56:00,
2013-05-25 10:01:00,52.7,52.7,29.47,North,355,0.0,0.0,100,0.00,,-RA,0.00,VWS V14.01,2013-05-25 14:01:00,
2013-05-25 10:07:00,52.7,52.7,29.47,NE,48,2.2,2.7,100,0.00,,-RA,0.00,VWS V14.01,2013-05-25 14:07:00,
2013-05-25 10:11:00,52.5,52.5,29.47,NNE,18,0.0,2.2,100,0.00,,-RA,0.00,VWS V14.01,2013-05-25 14:11:00,
2013-05-25 10:16:00,52.7,52.7,29.47,NNE,19,3.6,4.0,100,0.00,,-RA,0.00,VWS V14.01,2013-05-25 14:16:00,
2013-05-25 10:21:00,52.5,52.5,29.44,NE,36,0.0,5.8,100,0.00,,OVC017,0.00,VWS V14.01,2013-05-25 14:21:00,
2013-05-25 10:26:00,52.2,52.2,29.44,West,277,0.0,5.8,100,0.00,,OVC017,0.00,VWS V14.01,2013-05-25 14:26:00,
2013-05-25 10:31:00,52.3,52.3,29.44,NNE,20,0.0,2.2,100,0.00,,OVC017,0.00,VWS V14.01,2013-05-25 14:31:00,
2013-05-25 10:36:00,52.3,52.3,29.44,NE,44,3.6,4.0,100,0.00,,,0.00,VWS V14.01,2013-05-25 14:36:00,
2013-05-25 10:41:00,52.9,52.9,29.44,North,9,2.7,3.6,100,0.00,,,0.00,VWS V14.01,2013-05-25 14:41:00,
2013-05-25 10:47:00,52.3,52.3,29.44,North,351,0.0,3.6,100,0.00,,,0.00,VWS V14.01,2013-05-25 14:47:00,
2013-05-25 10:52:00,52.7,52.7,29.47,North,354,2.7,2.7,100,0.00,,,0.00,VWS V14.01,2013-05-25 14:52:00,
2013-05-25 10:57:00,52.9,52.9,29.47,ESE,114,0.0,0.0,100,0.00,,,0.00,VWS V14.01,2013-05-25 14:57:00,
2013-05-25 11:02:00,52.7,52.7,29.47,SSW,209,0.0,3.6,100,0.00,,-RA,0.00,VWS V14.01,2013-05-25 15:02:00,
2013-05-25 11:07:00,52.2,52.2,29.47,NW,324,0.0,0.0,100,0.00,,-RA,0.00,VWS V14.01,2013-05-25 15:07:00,
2013-05-25 11:12:00,51.8,51.8,29.47,South,185,3.1,3.1,100,0.00,,-RA,0.00,VWS V14.01,2013-05-25 15:12:00,
2013-05-25 11:17:00,51.8,51.8,29.47,North,5,3.1,5.4,100,0.00,,-RA,0.00,VWS V14.01,2013-05-25 15:17:00,
2013-05-25 11:22:00,51.8,51.8,29.47,North,8,0.0,2.2,100,0.00,,-RA,0.00,VWS V14.01,2013-05-25 15:22:00,
2013-05-25 11:27:00,52.3,52.3,29.47,NNE,24,0.0,2.2,100,0.00,,-RA,0.00,VWS V14.01,2013-05-25 15:27:00,
2013-05-25 11:32:00,52.7,52.7,29.47,NNE,17,0.0,0.0,100,0.00,,-RA,0.00,VWS V14.01,2013-05-25 15:32:00,
2013-05-25 11:37:00,52.3,52.3,29.47,North,5,2.2,4.0,100,0.00,,-RA,0.00,VWS V14.01,2013-05-25 15:37:00,
2013-05-25 11:42:00,51.8,51.8,29.47,WSW,243,2.7,2.7,100,0.00,,-RA,0.00,VWS V14.01,2013-05-25 15:42:00,
2013-05-25 11:47:00,51.4,51.4,29.47,SW,236,0.0,3.6,100,0.00,,-RA,0.00,VWS V14.01,2013-05-25 15:47:00,
2013-05-25 11:52:00,51.4,51.4,29.47,North,352,2.7,2.7,100,0.00,,-RA,0.00,VWS V14.01,2013-05-25 15:52:00,
2013-05-25 11:57:00,51.8,51.8,29.47,North,11,2.7,4.0,100,0.00,,-RA,0.00,VWS V14.01,2013-05-25 15:57:00,
2013-05-25 12:02:00,51.8,51.8,29.47,North,10,0.0,4.0,100,0.00,,-RA,0.00,VWS V14.01,2013-05-25 16:02:00,
2013-05-25 12:07:00,51.4,51.4,29.47,NNE,19,0.0,2.2,100,0.00,,-RA,0.00,VWS V14.01,2013-05-25 16:07:00,
2013-05-25 12:12:00,51.6,51.6,29.47,NE,53,0.0,0.0,100,0.00,,-RA,0.00,VWS V14.01,2013-05-25 16:12:00,
2013-05-25 12:17:00,51.6,51.6,29.47,NNE,19,2.7,3.6,100,0.00,,-RA,0.00,VWS V14.01,2013-05-25 16:17:00,
2013-05-25 12:22:00,51.4,51.4,29.47,NNE,19,0.0,3.6,100,0.00,,-RA,0.00,VWS V14.01,2013-05-25 16:22:00,
2013-05-25 12:27:00,51.4,51.4,29.47,NNW,331,0.0,0.0,100,0.00,,-RA,0.00,VWS V14.01,2013-05-25 16:27:00,
2013-05-25 12:32:00,51.6,51.6,29.47,ENE,58,0.0,0.0,100,0.00,,-RA,0.00,VWS V14.01,2013-05-25 16:32:00,
2013-05-25 12:37:00,51.8,51.8,29.47,NNE,15,0.0,2.7,100,0.00,,-RA,0.00,VWS V14.01,2013-05-25 16:37:00,
2013-05-25 12:42:00,52.5,52.5,29.47,East,91,0.0,0.0,100,0.00,,-RA,0.00,VWS V14.01,2013-05-25 16:42:00,
2013-05-25 12:47:00,52.5,52.5,29.47,NE,36,4.9,4.9,100,0.00,,-RA,0.00,VWS V14.01,2013-05-25 16:47:00,
2013-05-25 12:52:00,52.3,52.3,29.47,West,259,0.0,0.0,100,0.00,,-RA,0.00,VWS V14.01,2013-05-25 16:52:00,
2013-05-25 12:57:00,51.8,51.8,29.47,NNE,16,0.0,0.0,100,0.00,,-RA,0.00,VWS V14.01,2013-05-25 16:57:00,
2013-05-25 13:02:00,51.6,51.6,29.47,WNW,288,0.0,0.0,100,0.00,,-RA,0.00,VWS V14.01,2013-05-25 17:02:00,
2013-05-25 13:07:00,51.6,51.6,29.47,NNE,27,0.0,0.0,100,0.00,,-RA,0.00,VWS V14.01,2013-05-25 17:07:00,
2013-05-25 13:12:00,51.6,51.6,29.47,NNE,14,0.0,0.0,100,0.00,,-RA,0.00,VWS V14.01,2013-05-25 17:12:00,
2013-05-25 13:17:00,51.8,51.8,29.47,SW,217,0.0,2.2,100,0.00,,-RA,0.00,VWS V14.01,2013-05-25 17:17:00,
2013-05-25 13:22:00,52.0,52.0,29.44,North,352,0.0,3.6,100,0.00,,-RA,0.00,VWS V14.01,2013-05-25 17:22:00,
2013-05-25 13:27:00,51.8,51.8,29.44,NNE,25,0.0,0.0,100,0.00,,OVC040,0.00,VWS V14.01,2013-05-25 17:27:00,
2013-05-25 13:32:00,51.8,51.8,29.44,North,10,0.0,0.0,100,0.00,,OVC040,0.00,VWS V14.01,2013-05-25 17:32:00,
2013-05-25 13:37:00,51.8,51.8,29.44,NNE,21,2.7,3.6,100,0.00,,OVC034,0.00,VWS V14.01,2013-05-25 17:37:00,
2013-05-25 13:42:00,52.0,52.0,29.44,SW,224,0.0,0.0,100,0.00,,-RA,0.00,VWS V14.01,2013-05-25 17:42:00,
2013-05-25 13:47:00,51.8,51.8,29.44,WSW,244,0.0,0.0,100,0.00,,-RA,0.00,VWS V14.01,2013-05-25 17:47:00,
2013-05-25 13:52:00,51.8,51.8,29.44,NNE,32,0.0,2.7,100,0.00,,-RA,0.00,VWS V14.01,2013-05-25 17:52:00,
2013-05-25 13:57:00,51.8,51.8,29.44,North,356,2.2,2.2,100,0.00,,-RA,0.00,VWS V14.01,2013-05-25 17:57:00,
2013-05-25 14:02:00,51.8,51.8,29.44,WSW,240,3.1,3.1,100,0.00,,-RA,0.00,VWS V14.01,2013-05-25 18:02:00,
2013-05-25 14:07:00,51.6,51.6,29.47,North,360,0.0,0.0,100,0.00,,-RA,0.00,VWS V14.01,2013-05-25 18:07:00,
2013-05-25 14:12:00,52.0,52.0,29.47,North,351,0.0,0.0,100,0.00,,-RA,0.00,VWS V14.01,2013-05-25 18:12:00,
2013-05-25 14:17:00,52.3,52.3,29.47,North,354,0.0,0.0,100,0.00,,-RA,0.00,VWS V14.01,2013-05-25 18:17:00,
2013-05-25 14:22:00,52.3,52.3,29.47,SW,216,4.0,4.0,100,0.00,,-RA,0.00,VWS V14.01,2013-05-25 18:22:00,
2013-05-25 14:27:00,52.2,52.2,29.47,NNE,26,3.6,3.6,100,0.00,,-RA,0.00,VWS V14.01,2013-05-25 18:27:00,
2013-05-25 14:32:00,52.7,52.7,29.47,NNW,332,0.0,0.0,100,0.00,,-RA,0.00,VWS V14.01,2013-05-25 18:32:00,
2013-05-25 14:37:00,53.2,53.2,29.44,WSW,251,0.0,0.0,100,0.00,,-RA,0.00,VWS V14.01,2013-05-25 18:37:00,
2013-05-25 14:42:00,52.9,52.9,29.44,SSW,194,2.2,4.0,100,0.00,,RA,0.00,VWS V14.01,2013-05-25 18:42:00,
2013-05-25 14:47:00,52.5,52.5,29.44,NNE,16,0.0,2.7,100,0.00,,RA,0.00,VWS V14.01,2013-05-25 18:47:00,
2013-05-25 14:52:00,52.0,52.0,29.44,North,355,0.0,0.0,100,0.00,,RA,0.00,VWS V14.01,2013-05-25 18:52:00,
2013-05-25 14:57:00,51.6,51.6,29.44,NNE,17,2.2,4.5,100,0.00,,-RA,0.00,VWS V14.01,2013-05-25 18:57:00,
2013-05-25 15:02:00,51.6,51.6,29.44,NNW,347,0.0,0.0,100,0.00,,-RA,0.00,VWS V14.01,2013-05-25 19:02:00,
2013-05-25 15:07:00,52.0,52.0,29.44,NNE,12,0.0,3.1,100,0.00,,-RA,0.00,VWS V14.01,2013-05-25 19:07:00,
2013-05-25 15:12:00,52.3,52.3,29.44,West,280,0.0,3.1,100,0.00,,-RA,0.00,VWS V14.01,2013-05-25 19:12:00,
2013-05-25 15:17:00,52.2,52.2,29.44,WSW,247,0.0,0.0,100,0.00,,-RA,0.00,VWS V14.01,2013-05-25 19:17:00,
2013-05-25 15:22:00,52.3,52.3,29.44,SE,136,0.0,0.0,100,0.00,,-RA,0.00,VWS V14.01,2013-05-25 19:22:00,
2013-05-25 15:27:00,52.3,52.3,29.44,NNW,343,0.0,2.2,100,0.00,,-RA,0.00,VWS V14.01,2013-05-25 19:27:00,
2013-05-25 15:32:00,52.2,52.2,29.44,WNW,287,3.1,3.1,100,0.00,,-RA,0.00,VWS V14.01,2013-05-25 19:32:00,
2013-05-25 15:37:00,52.0,52.0,29.44,North,351,2.7,3.6,100,0.00,,-RA,0.00,VWS V14.01,2013-05-25 19:37:00,
2013-05-25 15:42:00,51.8,51.8,29.44,NNE,19,0.0,0.0,100,0.00,,-RA,0.00,VWS V14.01,2013-05-25 19:42:00,
2013-05-25 15:47:00,51.6,51.6,29.44,NW,317,0.0,3.1,100,0.00,,-RA,0.00,VWS V14.01,2013-05-25 19:47:00,
2013-05-25 15:52:00,51.6,51.6,29.44,ENE,58,3.1,3.1,100,0.00,,-RA,0.00,VWS V14.01,2013-05-25 19:52:00,
2013-05-25 15:57:00,51.6,51.6,29.44,NE,43,0.0,0.0,100,0.00,,-RA,0.00,VWS V14.01,2013-05-25 19:57:00,
2013-05-25 16:02:00,52.0,52.0,29.44,North,351,0.0,3.6,100,0.00,,-RA,0.00,VWS V14.01,2013-05-25 20:02:00,
2013-05-25 16:07:00,51.8,51.8,29.44,North,5,0.0,0.0,100,0.00,,-RA,0.00,VWS V14.01,2013-05-25 20:07:00,
2013-05-25 16:12:00,51.6,51.6,29.44,North,354,0.0,3.6,100,0.00,,-RA,0.00,VWS V14.01,2013-05-25 20:12:00,
2013-05-25 16:17:00,51.6,51.6,29.44,West,271,2.2,2.2,100,0.00,,-RA,0.00,VWS V14.01,2013-05-25 20:17:00,
2013-05-25 16:22:00,51.3,51.3,29.44,NNW,331,0.0,2.2,100,0.00,,-RA,0.00,VWS V14.01,2013-05-25 20:22:00,
2013-05-25 16:27:00,50.7,50.7,29.44,North,357,3.6,3.6,100,0.00,,-RA,0.00,VWS V14.01,2013-05-25 20:27:00,
2013-05-25 16:32:00,50.4,50.4,29.44,South,187,0.0,0.0,100,0.00,,-RA,0.00,VWS V14.01,2013-05-25 20:32:00,
2013-05-25 16:37:00,50.2,50.2,29.44,North,6,3.1,5.4,100,0.00,,-RA,0.00,VWS V14.01,2013-05-25 20:37:00,
2013-05-25 16:42:00,49.6,49.6,29.44,North,353,0.0,3.6,100,0.00,,-RA,0.00,VWS V14.01,2013-05-25 20:42:00,
2013-05-25 16:47:00,49.5,49.5,29.44,SSE,162,2.7,3.1,100,0.00,,-RA,0.00,VWS V14.01,2013-05-25 20:47:00,
2013-05-25 16:51:00,49.3,49.3,29.41,North,7,2.7,4.5,100,0.00,,-RA,0.00,VWS V14.01,2013-05-25 20:51:00,
2013-05-25 16:56:00,49.3,49.3,29.41,NNW,338,0.0,8.1,100,0.00,,-RA,0.00,VWS V14.01,2013-05-25 20:56:00,
2013-05-25 17:01:00,49.5,49.5,29.41,SW,220,5.4,5.4,100,0.00,,-RA,0.00,VWS V14.01,2013-05-25 21:01:00,
2013-05-25 17:06:00,48.9,48.9,29.41,WSW,238,3.6,5.8,100,0.00,,-RA,0.00,VWS V14.01,2013-05-25 21:06:00,
2013-05-25 17:11:00,48.6,48.6,29.41,SE,144,0.0,3.1,100,0.00,,-RA,0.00,VWS V14.01,2013-05-25 21:11:00,
2013-05-25 17:16:00,48.2,48.2,29.41,NE,36,2.7,2.7,100,0.00,,-RA,0.00,VWS V14.01,2013-05-25 21:16:00,
2013-05-25 17:21:00,48.2,48.2,29.41,NE,38,4.5,4.5,100,0.00,,-RA,0.00,VWS V14.01,2013-05-25 21:21:00,
2013-05-25 17:26:00,48.0,48.0,29.41,SSW,195,0.0,0.0,100,0.00,,-RA,0.00,VWS V14.01,2013-05-25 21:26:00,
2013-05-25 17:47:00,47.7,47.7,29.44,East,88,0.0,0.0,100,0.00,,-RA,0.00,VWS V14.01,2013-05-25 21:47:00,
2013-05-25 17:52:00,47.3,47.3,29.44,SSW,196,0.0,2.2,100,0.00,,-RA,0.00,VWS V14.01,2013-05-25 21:52:00,
2013-05-25 17:57:00,46.9,46.9,29.44,SSW,211,0.0,0.0,100,0.00,,-RA,0.00,VWS V14.01,2013-05-25 21:57:00,
2013-05-25 18:02:00,46.9,46.9,29.44,West,276,2.2,2.2,100,0.00,,-RA,0.00,VWS V14.01,2013-05-25 22:02:00,
2013-05-25 18:07:00,46.8,46.8,29.44,North,1,0.0,0.0,100,0.00,,-RA,0.00,VWS V14.01,2013-05-25 22:07:00,
2013-05-25 18:12:00,46.8,46.8,29.44,SSW,213,0.0,2.7,100,0.00,,-RA,0.00,VWS V14.01,2013-05-25 22:12:00,
2013-05-25 18:17:00,46.6,46.6,29.44,East,89,0.0,3.6,100,0.00,,-RA,0.00,VWS V14.01,2013-05-25 22:17:00,
2013-05-25 18:22:00,46.4,46.4,29.44,SE,125,5.4,5.4,100,0.00,,-RA,0.00,VWS V14.01,2013-05-25 22:22:00,
2013-05-25 18:27:00,46.4,46.4,29.44,WSW,238,0.0,0.0,100,0.00,,-RA,0.00,VWS V14.01,2013-05-25 22:27:00,
2013-05-25 18:32:00,46.4,46.4,29.44,NE,52,2.2,2.2,100,0.00,,-RA,0.00,VWS V14.01,2013-05-25 22:32:00,
2013-05-25 18:37:00,46.2,46.2,29.44,WSW,254,0.0,3.1,100,0.00,,-RA,0.00,VWS V14.01,2013-05-25 22:37:00,
2013-05-25 18:42:00,46.0,46.0,29.44,ENE,62,0.0,0.0,100,0.00,,-RA,0.00,VWS V14.01,2013-05-25 22:42:00,
2013-05-25 18:47:00,45.9,45.9,29.44,SW,216,2.7,2.7,100,0.00,,-RA,0.00,VWS V14.01,2013-05-25 22:47:00,
2013-05-25 18:52:00,45.5,45.5,29.44,NW,326,4.0,4.0,100,0.00,,-RA,0.00,VWS V14.01,2013-05-25 22:52:00,
2013-05-25 18:57:00,45.3,45.3,29.44,NNW,335,2.7,4.0,100,0.00,,-RA,0.00,VWS V14.01,2013-05-25 22:57:00,
2013-05-25 19:02:00,45.1,45.1,29.44,SW,234,0.0,0.0,100,0.00,,-RA,0.00,VWS V14.01,2013-05-25 23:02:00,
2013-05-25 19:08:00,45.0,45.0,29.44,ESE,105,0.0,2.2,100,0.00,,-RA,0.00,VWS V14.01,2013-05-25 23:08:00,
2013-05-25 19:13:00,44.6,44.6,29.44,ESE,102,0.0,4.0,100,0.00,,-RA,0.00,VWS V14.01,2013-05-25 23:13:00,
2013-05-25 19:18:00,44.4,44.4,29.44,West,271,0.0,2.2,100,0.00,,-RA,0.00,VWS V14.01,2013-05-25 23:18:00,
2013-05-25 19:23:00,44.1,44.1,29.44,NNE,20,0.0,4.0,100,0.00,,-RA,0.00,VWS V14.01,2013-05-25 23:23:00,
2013-05-25 19:28:00,43.7,43.7,29.44,SE,130,3.1,4.9,100,0.00,,-RA,0.00,VWS V14.01,2013-05-25 23:28:00,
2013-05-25 19:33:00,43.5,43.5,29.44,WSW,252,0.0,2.2,100,0.00,,-RA,0.00,VWS V14.01,2013-05-25 23:33:00,
2013-05-25 19:38:00,43.5,43.5,29.47,South,181,0.0,2.7,100,0.00,,-RA,0.00,VWS V14.01,2013-05-25 23:38:00,
2013-05-25 19:43:00,43.3,43.3,29.47,WNW,296,0.0,0.0,100,0.00,,-RA,0.00,VWS V14.01,2013-05-25 23:43:00,
2013-05-25 19:48:00,43.3,43.3,29.47,NW,325,2.2,4.0,100,0.00,,-RA,0.00,VWS V14.01,2013-05-25 23:48:00,
2013-05-25 19:53:00,43.3,43.3,29.44,North,352,2.7,4.0,100,0.00,,-RA,0.00,VWS V14.01,2013-05-25 23:53:00,
2013-05-25 19:58:00,43.3,43.3,29.44,SW,222,2.7,2.7,100,0.00,,-RA,0.00,VWS V14.01,2013-05-25 23:58:00,
2013-05-25 20:03:00,43.2,43.2,29.44,South,176,0.0,0.0,100,0.00,,-RA,0.00,VWS V14.01,2013-05-26 00:03:00,
2013-05-25 20:08:00,43.0,43.0,29.44,West,269,0.0,0.0,100,0.00,,-RA,0.00,VWS V14.01,2013-05-26 00:08:00,
2013-05-25 20:13:00,42.8,42.8,29.44,SSW,197,4.0,4.0,100,0.00,,-RA,0.00,VWS V14.01,2013-05-26 00:13:00,
2013-05-25 20:18:00,42.6,42.6,29.44,NE,55,0.0,0.0,100,0.00,,-RA,0.00,VWS V14.01,2013-05-26 00:18:00,
2013-05-25 20:23:00,42.4,42.4,29.44,NNE,20,0.0,0.0,100,0.00,,-RA,0.00,VWS V14.01,2013-05-26 00:23:00,
2013-05-25 20:28:00,42.3,42.3,29.44,SSW,200,3.1,6.3,100,0.00,,-RA,0.00,VWS V14.01,2013-05-26 00:28:00,
2013-05-25 20:33:00,42.3,42.3,29.44,West,268,7.2,7.2,100,0.00,,-RA,0.00,VWS V14.01,2013-05-26 00:33:00,
2013-05-25 20:38:00,42.1,42.1,29.44,SSW,210,5.4,5.4,100,0.00,,-RA,0.00,VWS V14.01,2013-05-26 00:38:00,
2013-05-25 20:43:00,42.1,42.1,29.44,SW,223,0.0,0.0,100,0.00,,-RA,0.00,VWS V14.01,2013-05-26 00:43:00,
2013-05-25 20:48:00,42.1,42.1,29.44,West,264,0.0,0.0,100,0.00,,-RA,0.00,VWS V14.01,2013-05-26 00:48:00,
2013-05-25 20:53:00,42.1,42.1,29.47,North,352,0.0,0.0,100,0.00,,-RA,0.00,VWS V14.01,2013-05-26 00:53:00,
2013-05-25 20:58:00,42.1,42.1,29.47,NE,44,0.0,0.0,100,0.00,,-RA,0.00,VWS V14.01,2013-05-26 00:58:00,
2013-05-25 21:03:00,42.1,42.1,29.47,NW,313,0.0,3.1,100,0.00,,-RA,0.00,VWS V14.01,2013-05-26 01:03:00,
2013-05-25 21:08:00,41.9,41.9,29.44,North,351,0.0,0.0,100,0.00,,-RA,0.00,VWS V14.01,2013-05-26 01:08:00,
2013-05-25 21:13:00,41.9,41.9,29.44,SW,222,4.9,4.9,100,0.00,,-RA,0.00,VWS V14.01,2013-05-26 01:13:00,
2013-05-25 21:18:00,41.9,41.9,29.44,South,191,0.0,8.1,100,0.00,,-RA,0.00,VWS V14.01,2013-05-26 01:18:00,
2013-05-25 21:23:00,41.9,41.9,29.44,South,186,3.1,4.0,100,0.00,,-RA,0.00,VWS V14.01,2013-05-26 01:23:00,
2013-05-25 21:28:00,41.7,41.7,29.44,WSW,258,0.0,0.0,100,0.00,,-RA,0.00,VWS V14.01,2013-05-26 01:28:00,
2013-05-25 21:33:00,41.7,41.7,29.44,SW,229,0.0,0.0,100,0.00,,-RA,0.00,VWS V14.01,2013-05-26 01:33:00,
2013-05-25 21:38:00,41.7,41.7,29.44,SW,215,0.0,0.0,100,0.00,,OVC015,0.00,VWS V14.01,2013-05-26 01:38:00,
2013-05-25 21:43:00,41.7,41.7,29.44,North,359,0.0,0.0,100,0.00,,OVC015,0.00,VWS V14.01,2013-05-26 01:43:00,
2013-05-25 21:48:00,41.7,41.7,29.44,ESE,117,0.0,5.4,100,0.00,,OVC015,0.00,VWS V14.01,2013-05-26 01:48:00,
2013-05-25 21:53:00,41.7,41.7,29.44,SW,223,0.0,4.0,100,0.00,,OVC015,0.00,VWS V14.01,2013-05-26 01:53:00,
2013-05-25 21:58:00,41.9,41.9,29.44,NW,322,0.0,3.6,100,0.00,,OVC027,0.00,VWS V14.01,2013-05-26 01:58:00,
2013-05-25 22:03:00,41.7,41.7,29.44,ENE,67,0.0,4.0,100,0.00,,OVC027,0.00,VWS V14.01,2013-05-26 02:03:00,
2013-05-25 22:08:00,41.7,41.7,29.44,NW,304,0.0,0.0,100,0.00,,OVC027,0.00,VWS V14.01,2013-05-26 02:08:00,
2013-05-25 22:13:00,41.7,41.7,29.44,NNE,20,2.7,2.7,100,0.00,,OVC027,0.00,VWS V14.01,2013-05-26 02:13:00,
2013-05-25 22:18:00,41.7,41.7,29.44,SW,225,2.7,2.7,100,0.00,,OVC027,0.00,VWS V14.01,2013-05-26 02:18:00,
2013-05-25 22:23:00,41.7,41.7,29.44,ENE,58,0.0,0.0,100,0.00,,OVC027,0.00,VWS V14.01,2013-05-26 02:23:00,
2013-05-25 22:28:00,41.5,41.5,29.44,West,272,0.0,4.0,100,0.00,,OVC027,0.00,VWS V14.01,2013-05-26 02:28:00,
2013-05-25 22:33:00,41.5,41.5,29.44,NW,319,2.2,6.3,100,0.00,,OVC027,0.00,VWS V14.01,2013-05-26 02:33:00,
2013-05-25 22:38:00,41.4,41.4,29.44,SE,138,0.0,2.2,100,0.00,,OVC027,0.00,VWS V14.01,2013-05-26 02:38:00,
2013-05-25 22:43:00,41.4,41.4,29.44,SE,138,0.0,0.0,100,0.00,,OVC027,0.00,VWS V14.01,2013-05-26 02:43:00,
2013-05-25 22:48:00,41.4,41.4,29.44,WSW,239,0.0,0.0,100,0.00,,OVC027,0.00,VWS V14.01,2013-05-26 02:48:00,
2013-05-25 22:53:00,41.4,41.4,29.44,SW,236,0.0,0.0,100,0.00,,OVC043,0.00,VWS V14.01,2013-05-26 02:53:00,
2013-05-25 22:58:00,41.2,41.2,29.44,West,260,0.0,3.1,100,0.00,,OVC043,0.00,VWS V14.01,2013-05-26 02:58:00,
2013-05-25 23:03:00,40.8,40.8,29.44,SW,234,5.4,5.4,100,0.00,,OVC047,0.00,VWS V14.01,2013-05-26 03:03:00,
2013-05-25 23:08:00,40.8,40.8,29.44,North,350,0.0,0.0,100,0.00,,OVC047,0.00,VWS V14.01,2013-05-26 03:08:00,
2013-05-25 23:13:00,40.6,40.6,29.44,WSW,240,0.0,0.0,100,0.00,,OVC047,0.00,VWS V14.01,2013-05-26 03:13:00,
2013-05-25 23:18:00,40.5,40.5,29.44,SW,223,0.0,0.0,100,0.00,,OVC047,0.00,VWS V14.01,2013-05-26 03:18:00,
2013-05-25 23:23:00,40.3,40.3,29.44,NNW,343,0.0,0.0,100,0.00,,OVC047,0.00,VWS V14.01,2013-05-26 03:23:00,
2013-05-25 23:28:00,40.3,40.3,29.44,SW,227,0.0,0.0,100,0.00,,OVC047,0.00,VWS V14.01,2013-05-26 03:28:00,
2013-05-25 23:33:00,40.1,40.1,29.44,SW,228,0.0,0.0,100,0.00,,OVC047,0.00,VWS V14.01,2013-05-26 03:33:00,
2013-05-25 23:38:00,39.9,39.9,29.44,SW,221,0.0,0.0,100,0.00,,OVC047,0.00,VWS V14.01,2013-05-26 03:38:00,
2013-05-25 23:43:00,39.7,39.7,29.44,SW,220,0.0,0.0,100,0.00,,OVC047,0.00,VWS V14.01,2013-05-26 03:43:00,
2013-05-25 23:48:00,39.7,39.7,29.44,SW,225,0.0,0.0,100,0.00,,OVC047,0.00,VWS V14.01,2013-05-26 03:48:00,
2013-05-25 23:53:00,39.7,39.7,29.44,SW,225,0.0,0.0,100,0.00,,OVC047,0.00,VWS V14.01,2013-05-26 03:53:00,
2013-05-25 23:58:00,39.7,39.7,29.44,NNW,344,0.0,0.0,100,0.00,,OVC047,0.00,VWS V14.01,2013-05-26 03:58:00,